Location: Batesville
(34.7480°N, 83.6110°W)
Time: 10:53:38
(UTC-04:00)

Hubble Space Telescope - Visible Passes

Search period start: 22 July 2018 00:00
Search period end: 01 August 2018 00:00
Orbit: 537 x 541 km, 28.5° (Epoch: 21 July)

Date Brightness Start Highest point End Pass type
(mag) Time Alt. Az. Time Alt. Az. Time Alt. Az.
22 Jul 1.9 04:53:17 28° S 04:53:17 28° S 04:56:15 10° SE visible
23 Jul 2.5 04:44:00 20° SSE 04:44:00 20° SSE 04:45:44 10° SE visible
24 Jul 3.2 04:34:54 11° SE 04:34:54 11° SE 04:35:08 10° SE visible
28 Jul 2.8 22:33:53 10° SW 22:35:06 16° SSW 22:35:06 16° SSW visible
29 Jul 2.2 22:23:19 10° SW 22:25:45 24° SSW 22:25:45 24° SSW visible
30 Jul 1.7 22:12:48 10° SW 22:16:15 30° S 22:16:15 30° S visible
31 Jul 1.6 22:02:19 10° WSW 22:06:02 32° S 22:06:36 31° SSE visible
